QPF
0.06 0.07 0.06 0.05 0.05 0.04 0.03 0.03 0.02 0.02 0.02 0.01 0.01 0.01 0.01 0.01 0.00 0.00 0.00 0.00 0.01 0.02 0.02 0.01 0.02 0.03 0.03 0.03 0.04 0.05 0.05 0.05 0.03 0.02 0.02 0.02 0.01 0.00 0.00 0.00 0.00 0.01 0.01
0.05 0.06 0.06 0.06 0.04 0.03 0.03 0.03 0.02 0.01 0.02 0.02 0.02 0.02 0.01 0.01 0.01 0.00 0.00 0.00 0.01 0.01 0.02 0.02 0.03 0.03 0.03 0.02 0.03 0.04 0.05 0.05 0.02 0.02 0.02 0.02 0.01 0.01 0.00 0.00 0.00 0.00 0.00
0.03 0.03 0.03 0.03 0.03 0.03 0.04 0.04 0.03 0.02 0.01 0.02 0.01 0.01 0.01 0.01 0.01 0.00 0.00 0.00 0.01 0.01 0.01 0.01 0.02 0.02 0.02 0.02 0.03 0.03 0.04 0.04 0.03 0.02 0.02 0.02 0.01 0.01 0.01 0.00 0.00 0.01 0.01
0.04 0.04 0.02 0.02 0.03 0.03 0.04 0.04 0.04 0.04 0.03 0.02 0.01 0.01 0.01 0.01 0.01 0.01 0.01 0.01 0.01 0.01 0.01 0.00 0.01 0.01 0.02 0.02 0.01 0.01 0.02 0.02 0.02 0.02 0.01 0.01 0.01 0.01 0.01 0.01 0.01 0.01 0.01
0.05 0.04 0.02 0.02 0.03 0.03 0.03 0.04 0.04 0.04 0.04 0.03 0.02 0.02 0.02 0.02 0.01 0.01 0.01 0.01 0.01 0.01 0.01 0.01 0.01 0.02 0.02 0.01 0.01 0.01 0.01 0.01 0.01 0.01 0.01 0.01 0.01 0.01 0.01 0.01 0.01 0.01 0.01
0.07 0.06 0.03 0.03 0.03 0.03 0.04 0.04 0.04 0.04 0.04 0.04 0.04 0.03 0.03 0.02 0.03 0.03 0.02 0.02 0.02 0.01 0.01 0.01 0.01 0.02 0.02 0.01 0.01 0.01 0.01 0.01 0.01 0.01 0.01 0.01 0.01 0.02 0.02 0.02 0.01 0.01 0.01
0.07 0.07 0.05 0.05 0.03 0.03 0.04 0.04 0.03 0.03 0.03 0.03 0.03 0.03 0.02 0.03 0.03 0.03 0.03 0.02 0.02 0.03 0.03 0.03 0.02 0.02 0.02 0.02 0.02 0.01 0.01 0.01 0.01 0.01 0.01 0.01 0.02 0.02 0.02 0.02 0.02 0.01 0.02
0.06 0.06 0.05 0.04 0.03 0.03 0.03 0.04 0.05 0.04 0.03 0.02 0.02 0.02 0.02 0.02 0.02 0.02 0.03 0.02 0.02 0.02 0.02 0.03 0.02 0.02 0.03 0.03 0.03 0.02 0.01 0.01 0.01 0.01 0.01 0.02 0.01 0.01 0.02 0.03 0.03 0.02 0.03
0.05 0.05 0.05 0.04 0.03 0.02 0.02 0.03 0.04 0.04 0.02 0.02 0.02 0.02 0.02 0.02 0.02 0.02 0.02 0.02 0.02 0.02 0.02 0.02 0.01 0.01 0.02 0.03 0.03 0.04 0.03 0.03 0.03 0.02 0.02 0.02 0.02 0.02 0.02 0.02 0.02 0.02 0.02
0.05 0.05 0.06 0.05 0.03 0.02 0.02 0.02 0.01 0.01 0.01 0.02 0.02 0.02 0.01 0.01 0.02 0.02 0.02 0.02 0.01 0.01 0.02 0.01 0.01 0.01 0.02 0.02 0.02 0.02 0.03 0.03 0.04 0.03 0.02 0.02 0.02 0.02 0.02 0.02 0.02 0.02 0.03
0.06 0.06 0.05 0.04 0.03 0.02 0.02 0.01 0.01 0.01 0.01 0.01 0.01 0.02 0.01 0.01 0.01 0.01 0.02 0.02 0.01 0.01 0.01 0.01 0.01 0.01 0.02 0.02 0.01 0.01 0.02 0.03 0.04 0.04 0.03 0.02 0.02 0.02 0.02 0.02 0.02 0.02 0.03
0.04 0.05 0.04 0.03 0.02 0.02 0.01 0.01 0.01 0.01 0.01 0.01 0.01 0.01 0.01 0.01 0.01 0.01 0.02 0.02 0.02 0.02 0.01 0.01 0.01 0.01 0.01 0.02 0.01 0.01 0.02 0.03 0.03 0.05 0.05 0.03 0.02 0.01 0.01 0.01 0.01 0.02 0.02
0.05 0.04 0.03 0.02 0.02 0.02 0.01 0.01 0.01 0.01 0.01 0.01 0.01 0.01 0.01 0.01 0.01 0.01 0.01 0.01 0.02 0.02 0.02 0.02 0.02 0.02 0.02 0.01 0.02 0.02 0.03 0.02 0.02 0.02 0.03 0.04 0.02 0.01 0.01 0.01 0.01 0.01 0.01
0.05 0.04 0.02 0.02 0.02 0.02 0.01 0.01 0.01 0.01 0.01 0.01 0.01 0.01 0.01 0.01 0.01 0.01 0.01 0.01 0.01 0.02 0.02 0.03 0.03 0.03 0.03 0.02 0.02 0.02 0.03 0.03 0.02 0.01 0.01 0.01 0.02 0.02 0.01 0.01 0.01 0.01 0.01
0.05 0.04 0.03 0.01 0.01 0.01 0.01 0.01 0.01 0.02 0.02 0.02 0.02 0.02 0.02 0.02 0.02 0.02 0.02 0.02 0.02 0.03 0.04 0.05 0.03 0.02 0.01 0.01 0.01 0.01 0.03 0.04 0.03 0.02 0.01 0.01 0.01 0.01 0.01 0.01 0.01 0.01 0.02
0.05 0.04 0.03 0.01 0.01 0.01 0.01 0.01 0.02 0.03 0.03 0.03 0.03 0.03 0.03 0.04 0.04 0.04 0.03 0.02 0.03 0.05 0.06 0.06 0.04 0.02 0.01 0.01 0.00 0.01 0.02 0.04 0.05 0.04 0.02 0.01 0.01 0.01 0.01 0.01 0.01 0.01 0.01
0.05 0.04 0.02 0.01 0.01 0.01 0.01 0.01 0.02 0.02 0.03 0.04 0.04 0.03 0.02 0.03 0.04 0.04 0.03 0.03 0.04 0.05 0.06 0.07 0.05 0.03 0.02 0.01 0.01 0.01 0.01 0.02 0.04 0.05 0.05 0.04 0.02 0.01 0.01 0.01 0.01 0.01 0.02
0.05 0.04 0.03 0.02 0.01 0.01 0.02 0.02 0.02 0.02 0.02 0.03 0.03 0.03 0.03 0.02 0.03 0.04 0.04 0.04 0.04 0.04 0.04 0.05 0.06 0.05 0.04 0.03 0.02 0.01 0.01 0.02 0.03 0.04 0.05 0.04 0.03 0.03 0.02 0.01 0.01 0.01 0.01
0.04 0.04 0.03 0.02 0.01 0.01 0.02 0.02 0.03 0.03 0.02 0.02 0.02 0.03 0.04 0.04 0.05 0.04 0.04 0.03 0.03 0.03 0.04 0.04 0.04 0.05 0.05 0.04 0.03 0.02 0.02 0.02 0.02 0.03 0.05 0.06 0.04 0.02 0.02 0.01 0.01 0.01 0.01
0.02 0.03 0.02 0.02 0.02 0.02 0.02 0.02 0.02 0.03 0.03 0.03 0.03 0.03 0.04 0.04 0.03 0.04 0.04 0.03 0.03 0.02 0.02 0.03 0.03 0.04 0.04 0.04 0.04 0.03 0.02 0.02 0.02 0.03 0.03 0.04 0.05 0.03 0.02 0.01 0.01 0.02 0.01
0.02 0.02 0.02 0.02 0.02 0.03 0.03 0.03 0.03 0.03 0.03 0.03 0.03 0.04 0.04 0.03 0.03 0.03 0.03 0.03 0.03 0.03 0.03 0.03 0.04 0.04 0.04 0.04 0.04 0.04 0.04 0.03 0.03 0.03 0.03 0.03 0.04 0.04 0.04 0.03 0.03 0.03 0.02
0.02 0.02 0.02 0.02 0.02 0.02 0.02 0.02 0.02 0.02 0.02 0.02 0.02 0.03 0.04 0.03 0.02 0.02 0.02 0.01 0.02 0.03 0.04 0.05 0.06 0.06 0.06 0.06 0.06 0.05 0.04 0.04 0.04 0.04 0.03 0.03 0.03 0.04 0.04 0.04 0.04 0.04 0.03
0.01 0.01 0.01 0.01 0.01 0.01 0.01 0.01 0.01 0.01 0.01 0.02 0.02 0.02 0.03 0.03 0.02 0.01 0.01 0.01 0.01 0.01 0.02 0.03 0.03 0.04 0.04 0.04 0.04 0.04 0.04 0.04 0.04 0.04 0.04 0.04 0.04 0.04 0.04 0.04 0.04 0.04 0.04
0.01 0.00 0.00 0.01 0.01 0.01 0.01 0.01 0.02 0.02 0.02 0.02 0.02 0.01 0.01 0.02 0.02 0.02 0.02 0.02 0.01 0.01 0.02 0.02 0.02 0.02 0.02 0.03 0.03 0.03 0.03 0.03 0.03 0.03 0.04 0.04 0.04 0.04 0.03 0.03 0.03 0.03 0.03
0.01 0.01 0.00 0.00 0.00 0.00 0.01 0.01 0.01 0.02 0.02 0.02 0.02 0.01 0.01 0.01 0.01 0.01 0.01 0.01 0.01 0.01 0.01 0.01 0.01 0.01 0.01 0.02 0.03 0.03 0.03 0.03 0.03 0.03 0.03 0.04 0.04 0.04 0.04 0.03 0.03 0.03 0.03
0.01 0.01 0.01 0.01 0.01 0.01 0.01 0.01 0.01 0.01 0.01 0.01 0.01 0.01 0.01 0.01 0.01 0.01 0.01 0.01 0.01 0.01 0.01 0.01 0.01 0.01 0.02 0.02 0.02 0.03 0.03 0.02 0.02 0.02 0.03 0.03 0.04 0.04 0.03 0.03 0.03 0.03 0.03
MSLP
1017.12 1017.79 1018.44 1019.04 1019.58 1020.04 1020.42 1020.75 1021.06 1021.36 1021.68 1022.01 1022.35 1022.67 1022.99 1023.26 1023.51 1023.72 1023.92 1024.13 1024.35 1024.59 1024.86 1025.14 1025.42 1025.66 1025.85 1025.99 1026.07 1026.10 1026.10 1026.09 1026.08 1026.07 1026.06 1026.04 1025.99 1025.88 1025.71 1025.47 1025.17 1024.83 1024.46
1016.70 1017.37 1018.03 1018.64 1019.19 1019.68 1020.11 1020.49 1020.85 1021.20 1021.56 1021.93 1022.31 1022.67 1023.02 1023.33 1023.61 1023.86 1024.09 1024.32 1024.56 1024.81 1025.07 1025.34 1025.60 1025.83 1026.02 1026.17 1026.28 1026.35 1026.41 1026.46 1026.51 1026.57 1026.60 1026.61 1026.56 1026.44 1026.24 1025.94 1025.56 1025.13 1024.66
1016.28 1016.95 1017.61 1018.23 1018.79 1019.29 1019.74 1020.15 1020.55 1020.94 1021.34 1021.75 1022.16 1022.57 1022.95 1023.30 1023.61 1023.90 1024.17 1024.43 1024.68 1024.95 1025.22 1025.49 1025.75 1025.98 1026.18 1026.35 1026.50 1026.63 1026.75 1026.87 1026.98 1027.10 1027.19 1027.23 1027.19 1027.07 1026.84 1026.50 1026.07 1025.56 1025.01
1015.83 1016.52 1017.18 1017.80 1018.36 1018.87 1019.33 1019.76 1020.19 1020.61 1021.05 1021.49 1021.94 1022.38 1022.79 1023.18 1023.54 1023.86 1024.17 1024.46 1024.75 1025.04 1025.32 1025.61 1025.88 1026.13 1026.35 1026.55 1026.74 1026.91 1027.08 1027.26 1027.43 1027.59 1027.72 1027.79 1027.78 1027.67 1027.43 1027.07 1026.61 1026.06 1025.46
1015.32 1016.04 1016.72 1017.35 1017.91 1018.43 1018.90 1019.35 1019.80 1020.25 1020.71 1021.19 1021.67 1022.14 1022.59 1023.02 1023.42 1023.78 1024.13 1024.46 1024.79 1025.11 1025.42 1025.73 1026.03 1026.30 1026.55 1026.78 1026.99 1027.19 1027.39 1027.59 1027.79 1027.98 1028.14 1028.23 1028.24 1028.14 1027.92 1027.58 1027.13 1026.58 1025.96
1014.71 1015.48 1016.20 1016.85 1017.44 1017.97 1018.46 1018.94 1019.40 1019.88 1020.38 1020.88 1021.40 1021.90 1022.39 1022.85 1023.29 1023.70 1024.08 1024.46 1024.83 1025.19 1025.54 1025.88 1026.21 1026.50 1026.77 1027.02 1027.24 1027.45 1027.65 1027.86 1028.05 1028.24 1028.39 1028.49 1028.52 1028.45 1028.27 1027.96 1027.55 1027.04 1026.46
1013.99 1014.83 1015.60 1016.30 1016.93 1017.49 1018.02 1018.52 1019.02 1019.53 1020.06 1020.60 1021.15 1021.69 1022.21 1022.71 1023.18 1023.62 1024.05 1024.47 1024.88 1025.28 1025.68 1026.06 1026.41 1026.73 1027.02 1027.27 1027.49 1027.68 1027.87 1028.04 1028.20 1028.36 1028.49 1028.59 1028.62 1028.58 1028.44 1028.20 1027.87 1027.43 1026.92
1013.17 1014.08 1014.92 1015.68 1016.37 1016.99 1017.56 1018.11 1018.65 1019.21 1019.78 1020.35 1020.93 1021.50 1022.05 1022.58 1023.08 1023.56 1024.02 1024.48 1024.93 1025.38 1025.81 1026.23 1026.62 1026.96 1027.26 1027.51 1027.72 1027.89 1028.03 1028.16 1028.28 1028.39 1028.49 1028.56 1028.59 1028.57 1028.48 1028.31 1028.06 1027.73 1027.32
1012.30 1013.27 1014.18 1015.01 1015.76 1016.44 1017.07 1017.68 1018.28 1018.88 1019.49 1020.11 1020.72 1021.31 1021.89 1022.44 1022.97 1023.47 1023.97 1024.46 1024.95 1025.44 1025.91 1026.37 1026.79 1027.16 1027.48 1027.74 1027.93 1028.08 1028.19 1028.27 1028.33 1028.39 1028.44 1028.48 1028.51 1028.50 1028.45 1028.35 1028.18 1027.94 1027.62
1011.44 1012.45 1013.41 1014.30 1015.11 1015.86 1016.55 1017.23 1017.88 1018.54 1019.19 1019.84 1020.48 1021.10 1021.70 1022.27 1022.81 1023.34 1023.87 1024.39 1024.91 1025.43 1025.95 1026.44 1026.90 1027.31 1027.65 1027.92 1028.12 1028.26 1028.35 1028.39 1028.41 1028.43 1028.44 1028.45 1028.45 1028.45 1028.42 1028.35 1028.23 1028.07 1027.84
1010.68 1011.70 1012.68 1013.60 1014.45 1015.25 1016.00 1016.73 1017.44 1018.15 1018.84 1019.52 1020.19 1020.83 1021.44 1022.03 1022.59 1023.14 1023.69 1024.23 1024.79 1025.35 1025.91 1026.44 1026.94 1027.39 1027.77 1028.07 1028.30 1028.45 1028.53 1028.57 1028.57 1028.55 1028.53 1028.51 1028.49 1028.46 1028.42 1028.37 1028.27 1028.14 1027.96
1010.09 1011.07 1012.02 1012.94 1013.81 1014.64 1015.43 1016.20 1016.96 1017.70 1018.43 1019.13 1019.82 1020.48 1021.11 1021.71 1022.29 1022.86 1023.43 1024.01 1024.59 1025.19 1025.79 1026.37 1026.91 1027.41 1027.83 1028.18 1028.45 1028.63 1028.74 1028.79 1028.80 1028.78 1028.74 1028.69 1028.64 1028.58 1028.51 1028.42 1028.31 1028.18 1028.00
1009.71 1010.60 1011.49 1012.37 1013.22 1014.05 1014.86 1015.65 1016.43 1017.19 1017.94 1018.67 1019.37 1020.05 1020.69 1021.31 1021.92 1022.52 1023.11 1023.72 1024.35 1024.98 1025.61 1026.23 1026.82 1027.36 1027.84 1028.24 1028.56 1028.79 1028.95 1029.05 1029.08 1029.07 1029.03 1028.97 1028.88 1028.78 1028.66 1028.52 1028.36 1028.18 1027.98
1009.53 1010.30 1011.09 1011.89 1012.70 1013.50 1014.29 1015.08 1015.87 1016.64 1017.40 1018.14 1018.86 1019.55 1020.22 1020.87 1021.50 1022.13 1022.77 1023.41 1024.07 1024.74 1025.40 1026.06 1026.68 1027.26 1027.79 1028.24 1028.61 1028.91 1029.12 1029.27 1029.35 1029.38 1029.35 1029.29 1029.18 1029.03 1028.86 1028.65 1028.42 1028.17 1027.91
1009.52 1010.14 1010.81 1011.52 1012.25 1013.00 1013.76 1014.53 1015.30 1016.07 1016.83 1017.57 1018.30 1019.01 1019.71 1020.39 1021.06 1021.73 1022.41 1023.10 1023.79 1024.48 1025.18 1025.85 1026.50 1027.11 1027.66 1028.15 1028.57 1028.92 1029.20 1029.41 1029.55 1029.62 1029.63 1029.57 1029.46 1029.28 1029.06 1028.79 1028.49 1028.17 1027.84
1009.59 1010.07 1010.62 1011.23 1011.88 1012.56 1013.27 1014.00 1014.74 1015.49 1016.23 1016.98 1017.71 1018.44 1019.16 1019.88 1020.60 1021.32 1022.05 1022.78 1023.50 1024.22 1024.93 1025.61 1026.27 1026.88 1027.44 1027.95 1028.40 1028.79 1029.12 1029.39 1029.59 1029.72 1029.77 1029.75 1029.65 1029.47 1029.23 1028.92 1028.57 1028.19 1027.80
1009.67 1010.04 1010.48 1010.99 1011.55 1012.17 1012.82 1013.50 1014.19 1014.90 1015.63 1016.35 1017.09 1017.84 1018.59 1019.35 1020.12 1020.89 1021.66 1022.43 1023.19 1023.93 1024.64 1025.32 1025.96 1026.55 1027.11 1027.61 1028.08 1028.49 1028.86 1029.18 1029.44 1029.63 1029.75 1029.78 1029.72 1029.57 1029.33 1029.01 1028.64 1028.23 1027.81
1009.71 1009.99 1010.34 1010.77 1011.26 1011.80 1012.39 1013.00 1013.65 1014.31 1015.00 1015.71 1016.44 1017.19 1017.97 1018.76 1019.57 1020.39 1021.21 1022.02 1022.80 1023.55 1024.26 1024.93 1025.54 1026.11 1026.64 1027.13 1027.59 1028.02 1028.42 1028.78 1029.10 1029.36 1029.54 1029.64 1029.65 1029.55 1029.35 1029.06 1028.70 1028.30 1027.87
1009.68 1009.89 1010.18 1010.55 1010.97 1011.45 1011.96 1012.51 1013.09 1013.70 1014.34 1015.01 1015.73 1016.48 1017.27 1018.09 1018.94 1019.80 1020.65 1021.49 1022.30 1023.06 1023.76 1024.40 1024.99 1025.53 1026.03 1026.50 1026.94 1027.38 1027.80 1028.20 1028.57 1028.90 1029.17 1029.35 1029.43 1029.41 1029.28 1029.05 1028.74 1028.37 1027.96
1009.58 1009.75 1010.00 1010.31 1010.67 1011.08 1011.52 1012.00 1012.51 1013.05 1013.63 1014.26 1014.95 1015.68 1016.47 1017.31 1018.18 1019.07 1019.96 1020.82 1021.64 1022.40 1023.10 1023.73 1024.29 1024.80 1025.28 1025.73 1026.17 1026.61 1027.05 1027.49 1027.92 1028.32 1028.67 1028.93 1029.11 1029.17 1029.12 1028.97 1028.72 1028.40 1028.04
1009.43 1009.57 1009.78 1010.04 1010.34 1010.68 1011.05 1011.45 1011.88 1012.35 1012.87 1013.45 1014.09 1014.81 1015.59 1016.42 1017.30 1018.20 1019.10 1019.98 1020.81 1021.57 1022.27 1022.89 1023.44 1023.95 1024.41 1024.86 1025.30 1025.76 1026.23 1026.72 1027.20 1027.67 1028.08 1028.43 1028.69 1028.84 1028.88 1028.80 1028.62 1028.36 1028.05
1009.23 1009.35 1009.52 1009.73 1009.97 1010.23 1010.53 1010.85 1011.20 1011.60 1012.05 1012.57 1013.18 1013.86 1014.62 1015.44 1016.31 1017.22 1018.12 1019.00 1019.83 1020.60 1021.29 1021.92 1022.47 1022.98 1023.46 1023.92 1024.39 1024.88 1025.39 1025.92 1026.46 1026.98 1027.47 1027.89 1028.22 1028.44 1028.55 1028.54 1028.42 1028.22 1027.95
1008.99 1009.07 1009.19 1009.34 1009.52 1009.71 1009.93 1010.18 1010.46 1010.79 1011.19 1011.66 1012.22 1012.87 1013.60 1014.40 1015.26 1016.15 1017.04 1017.91 1018.74 1019.51 1020.20 1020.84 1021.41 1021.94 1022.44 1022.94 1023.46 1023.99 1024.55 1025.14 1025.73 1026.31 1026.84 1027.32 1027.70 1027.98 1028.14 1028.18 1028.10 1027.94 1027.70
1008.67 1008.71 1008.77 1008.86 1008.97 1009.10 1009.25 1009.43 1009.66 1009.95 1010.30 1010.73 1011.26 1011.88 1012.58 1013.36 1014.19 1015.06 1015.92 1016.78 1017.59 1018.35 1019.06 1019.70 1020.30 1020.86 1021.41 1021.96 1022.53 1023.12 1023.74 1024.38 1025.02 1025.65 1026.23 1026.74 1027.16 1027.47 1027.66 1027.73 1027.68 1027.54 1027.33
1008.24 1008.21 1008.21 1008.24 1008.29 1008.36 1008.46 1008.61 1008.80 1009.06 1009.39 1009.81 1010.32 1010.92 1011.60 1012.36 1013.16 1013.99 1014.83 1015.65 1016.44 1017.19 1017.89 1018.55 1019.17 1019.78 1020.37 1020.98 1021.61 1022.27 1022.95 1023.64 1024.33 1025.00 1025.62 1026.15 1026.59 1026.92 1027.12 1027.21 1027.18 1027.06 1026.87
1007.64 1007.55 1007.49 1007.45 1007.45 1007.49 1007.56 1007.69 1007.88 1008.14 1008.48 1008.90 1009.41 1010.01 1010.68 1011.41 1012.18 1012.98 1013.78 1014.57 1015.33 1016.06 1016.75 1017.41 1018.06 1018.70 1019.35 1020.01 1020.71 1021.43 1022.16 1022.91 1023.65 1024.35 1024.99 1025.55 1026.00 1026.34 1026.56 1026.65 1026.64 1026.54 1026.36
Thickness
5673 5671 5670 5669 5668 5667 5665 5665 5664 5663 5663 5662 5662 5661 5659 5659 5658 5658 5657 5656 5655 5655 5654 5653 5652 5651 5650 5649 5648 5646 5644 5643 5639 5637 5638 5638 5639 5639 5639 5639 5639 5639 5640
5669 5667 5665 5664 5663 5662 5661 5660 5660 5659 5659 5658 5657 5656 5656 5655 5654 5653 5653 5652 5651 5651 5650 5650 5649 5648 5646 5645 5644 5643 5641 5640 5639 5635 5634 5634 5634 5634 5634 5634 5634 5635 5635
5664 5662 5660 5659 5658 5657 5657 5656 5656 5655 5654 5653 5652 5652 5651 5651 5650 5649 5649 5648 5648 5647 5647 5646 5645 5644 5642 5642 5641 5640 5638 5638 5636 5634 5631 5630 5629 5629 5629 5629 5629 5629 5630
5658 5656 5655 5653 5653 5653 5652 5651 5651 5650 5648 5648 5647 5647 5647 5646 5646 5645 5644 5644 5643 5643 5643 5643 5642 5641 5640 5639 5638 5637 5636 5634 5632 5630 5627 5626 5625 5624 5623 5623 5622 5623 5623
5652 5650 5649 5648 5648 5647 5646 5645 5645 5644 5643 5642 5642 5641 5641 5641 5641 5641 5640 5640 5639 5639 5639 5639 5639 5639 5639 5638 5637 5634 5633 5630 5628 5625 5623 5622 5620 5619 5619 5618 5617 5617 5618
5646 5644 5643 5642 5641 5640 5639 5638 5638 5637 5637 5636 5636 5635 5635 5637 5637 5637 5636 5635 5634 5634 5634 5634 5634 5634 5634 5634 5634 5633 5632 5628 5625 5622 5620 5619 5618 5617 5615 5614 5612 5611 5611
5639 5637 5637 5636 5635 5634 5633 5632 5631 5630 5630 5630 5630 5630 5630 5631 5632 5632 5632 5631 5629 5629 5629 5629 5630 5630 5629 5629 5629 5628 5627 5627 5626 5622 5619 5618 5617 5615 5613 5610 5608 5607 5606
5632 5631 5630 5629 5628 5627 5626 5625 5624 5624 5624 5624 5624 5625 5625 5626 5627 5627 5627 5625 5625 5624 5624 5624 5624 5624 5624 5624 5623 5621 5621 5621 5620 5619 5618 5617 5616 5614 5611 5609 5606 5603 5601
5625 5625 5625 5624 5622 5621 5620 5619 5619 5618 5618 5618 5619 5619 5619 5620 5622 5622 5621 5619 5618 5619 5619 5620 5619 5619 5620 5619 5617 5615 5615 5614 5614 5613 5613 5612 5610 5608 5606 5602 5599 5597 5595
5620 5619 5619 5618 5617 5616 5615 5614 5614 5613 5613 5613 5613 5613 5614 5614 5616 5616 5615 5614 5612 5613 5613 5614 5615 5615 5615 5613 5611 5610 5609 5608 5608 5607 5606 5605 5603 5602 5600 5598 5596 5592 5589
5614 5613 5613 5612 5612 5612 5610 5609 5608 5607 5606 5606 5606 5607 5607 5608 5610 5610 5610 5608 5607 5607 5607 5608 5609 5609 5609 5608 5607 5606 5606 5604 5602 5600 5598 5597 5596 5594 5593 5592 5591 5589 5585
5607 5607 5606 5606 5607 5607 5604 5603 5602 5601 5600 5599 5599 5599 5600 5601 5602 5603 5603 5603 5603 5601 5602 5603 5604 5604 5603 5602 5601 5601 5599 5597 5594 5592 5590 5589 5588 5587 5586 5585 5584 5582 5581
5600 5600 5600 5600 5600 5599 5598 5596 5595 5594 5593 5592 5592 5592 5592 5593 5594 5596 5596 5597 5596 5595 5596 5597 5597 5597 5596 5594 5593 5592 5591 5588 5586 5584 5583 5582 5581 5580 5578 5577 5575 5573 5572
5593 5592 5592 5592 5592 5592 5591 5590 5589 5587 5586 5586 5585 5585 5584 5584 5585 5586 5587 5587 5588 5588 5588 5588 5588 5588 5586 5585 5584 5582 5581 5580 5579 5578 5576 5574 5573 5571 5569 5567 5565 5563 5561
5586 5586 5585 5586 5585 5584 5583 5583 5583 5583 5582 5581 5580 5579 5577 5577 5579 5580 5579 5579 5579 5579 5579 5578 5577 5576 5575 5574 5573 5572 5571 5570 5570 5569 5567 5565 5564 5562 5560 5558 5555 5553 5551
5579 5579 5578 5579 5578 5577 5576 5575 5575 5575 5576 5575 5575 5574 5573 5573 5572 5571 5571 5571 5570 5570 5568 5567 5566 5566 5566 5565 5564 5563 5562 5561 5561 5560 5558 5556 5555 5553 5551 5548 5545 5543 5542
5573 5572 5572 5572 5571 5569 5569 5567 5566 5566 5566 5566 5566 5566 5565 5564 5563 5562 5561 5561 5559 5558 5556 5556 5556 5556 5556 5555 5555 5554 5553 5552 5551 5550 5549 5547 5545 5544 5541 5539 5536 5533 5532
5566 5566 5565 5564 5564 5562 5561 5560 5559 5558 5557 5556 5556 5556 5556 5555 5554 5552 5550 5548 5546 5545 5545 5545 5545 5545 5544 5544 5543 5543 5543 5542 5540 5539 5538 5537 5535 5534 5532 5529 5527 5524 5523
5558 5558 5557 5557 5556 5555 5553 5552 5551 5550 5548 5547 5546 5546 5545 5544 5543 5541 5540 5538 5536 5535 5534 5534 5534 5534 5534 5533 5532 5532 5531 5531 5530 5529 5528 5527 5526 5524 5523 5521 5519 5517 5514
5551 5552 5551 5549 5548 5546 5544 5543 5541 5540 5539 5538 5537 5536 5534 5532 5531 5530 5529 5528 5527 5526 5525 5525 5524 5524 5523 5522 5521 5520 5520 5519 5519 5519 5518 5518 5516 5515 5514 5513 5511 5509 5508
5543 5543 5543 5541 5539 5538 5536 5534 5532 5531 5530 5529 5528 5527 5526 5524 5523 5521 5520 5518 5517 5517 5516 5515 5514 5514 5513 5512 5511 5510 5509 5509 5509 5509 5508 5508 5507 5507 5506 5504 5503 5502 5500
5534 5532 5531 5531 5529 5527 5526 5525 5523 5521 5521 5520 5519 5517 5516 5514 5513 5511 5510 5509 5508 5507 5506 5505 5505 5505 5504 5503 5502 5502 5501 5500 5500 5499 5498 5498 5498 5498 5497 5496 5495 5494 5492
5524 5523 5521 5520 5519 5518 5516 5514 5512 5511 5511 5510 5509 5507 5506 5505 5504 5503 5502 5501 5500 5499 5497 5496 5495 5495 5495 5494 5493 5493 5492 5492 5492 5491 5490 5489 5488 5488 5487 5487 5486 5485 5484
5514 5513 5512 5510 5508 5507 5506 5505 5503 5502 5502 5501 5500 5498 5498 5497 5497 5496 5495 5494 5492 5491 5489 5488 5487 5486 5486 5485 5484 5484 5484 5484 5483 5482 5481 5480 5480 5479 5479 5478 5478 5477 5477
5505 5503 5502 5500 5499 5498 5497 5496 5495 5494 5493 5492 5492 5491 5490 5489 5489 5488 5487 5486 5484 5483 5482 5480 5479 5478 5478 5477 5477 5476 5476 5476 5474 5473 5472 5472 5471 5471 5470 5470 5470 5469 5468
5496 5494 5493 5491 5490 5489 5488 5487 5487 5486 5485 5484 5484 5483 5482 5482 5481 5480 5480 5479 5477 5476 5474 5473 5472 5471 5470 5470 5469 5469 5468 5468 5467 5465 5464 5463 5463 5463 5462 5462 5462 5461 5460